Location: Bretagne
(43.8474°N, 0.4650°W)
Time: 09:19:01
(UTC+00:00)

Cosmos 1339 Rocket - Pass Details

Date: 15 January 2026
Orbit: 941 x 1006 km, 82.9° (Epoch: 17 February)

Event Time Altitude Azimuth Distance (km) Brightness Sun altitude
Rises 18:43:27 0° 179° (S) 3,659 7.6 -20.0°
Reaches altitude 10° 18:45:58 10° 177° (S) 2,706 6.9 -20.5°
Maximum altitude 18:52:07 72° 95° (E) 1,011 4.3 -21.6°
Drops below altitude 10° 18:58:13 10° 12° (NNE) 2,683 6.6 -22.6°
Sets 19:00:43 0° 11° (N) 3,627 7.3 -23.1°
